{"data":{"norad_id":67980,"intl_designator":"2026-038V","name":"STARLINK-36882","alt_names":[],"object_type":"PAYLOAD","status":"ACTIVE","operator":null,"country":"US","launch_date":"2026-02-25","launch_site_code":"AFWTR","launch_vehicle":null,"mission":null,"orbit_class":"UNKNOWN","rcs_meters":null,"size_class":null,"mass_kg":null,"dimensions":null,"purposes":["comms"],"wikipedia_slug":null,"has_3d_model":false,"image_url":null,"decayed_at":null,"tle_current":{"epoch":"2026-05-24T23:27:46.392192Z","epoch_age_seconds":87715,"freshness":"FRESH","line1":"1 67980U 26038V   26144.97762028  .00050198  00000+0  15432-2 0  9996","line2":"2 67980  97.2867 155.0583 0000625  60.7962 299.3343 15.33521392 14935","mean_motion":15.33521392,"eccentricity":6.25e-5,"inclination_deg":97.2867,"raan_deg":155.0583,"arg_perigee_deg":60.7962,"mean_anomaly_deg":299.3343,"bstar":0.0015432,"rev_number":1493,"period_min":93.901526741793,"perigee_km":464.88817926187,"apogee_km":465.74361087375,"semimajor_km":6843.4528950678,"source":"CELESTRAK","updated_at":"2026-05-25T13:38:21.777044Z"}}}